Weather History for Luxor, Egypt

Change the Weather History Date:

Monday, December 8, 2014

  Actual Average Record
Temperature  
Mean Temperature 72 °F -  
Max Temperature 83 °F 71 °F 89 °F (2002)
Min Temperature 61 °F 45 °F 44 °F (1999)
Cooling Degree Days 7    
Growing Degree Days 22 (Base 50)    
Moisture  
Dew Point 59 °F    
Average Humidity 64    
Maximum Humidity 88    
Minimum Humidity 36    
Precipitation  
Precipitation 0.00 in 0.00 in - ()
Sea Level Pressure  
Sea Level Pressure 29.88 in    
Wind  
Wind Speed 1 mph ()    
Max Wind Speed 4 mph    
Max Gust Speed -    
Visibility 4.0 miles    
Events      
Averages and records for this station are not official NWS values.
T = Trace of Precipitation, MM = Missing Value Source: Averaged Metar Reports

Daily Weather History Graph

Daily Weather History Graph

Search for Another Location

Airport:

Trip Planner

Search our weather history database for the weather conditions in past years. The results will help you decide how hot, cold, wet, or windy it might be!

Date:

Astronomy

Dec. 08, 2014 Rise Set
Actual Time 6:23 AM EET 4:58 PM EET
Civil Twilight 5:58 AM EET 5:23 PM EET
Nautical Twilight 5:29 AM EET 5:52 PM EET
Astronomical Twilight 5:01 AM EET 6:20 PM EET
Moon 6:56 PM EET (12/8) 7:45 AM EET (12/8)
Length of Visible Light 11h 25m
Length of Day
10h 35m
Waning Gibbous, 96% of the Moon is Illuminated
Dec 8
Waning Gibbous
Dec 14
Last Quarter
Dec 22
New
Dec 28
First Quarter
Jan 5
Full

Hourly Weather History & Observations

Time (EET) Temp. Heat Index Dew Point Humidity Pressure Visibility Wind Dir Wind Speed Gust Speed Precip Events Conditions
12:00 AM 68.0 °F - 59.0 °F 73% 29.92 in - SSW 3.5 mph - N/A   Clear
1:00 AM 68.0 °F - 59.0 °F 73% 29.89 in - SW 2.3 mph - N/A   Clear
2:00 AM 67 °F - 58 °F 64% 29.89 in 6 mi Calm Calm - -  
2:00 AM 66.2 °F - 57.2 °F 73% 29.89 in - Calm Calm - N/A   Clear
3:00 AM 64.4 °F - 57.2 °F 77% 29.89 in - Calm Calm - N/A   Clear
4:00 AM 62.6 °F - 55.4 °F 77% 29.89 in - Calm Calm - N/A   Clear
5:00 AM 62 °F - 55 °F 71% 29.89 in 6 mi Calm Calm - -  
5:00 AM 62.6 °F - 55.4 °F 77% 29.89 in - Calm Calm - N/A   Clear
6:00 AM 60.8 °F - 57.2 °F 88% 29.92 in - Calm Calm - N/A   Clear
7:00 AM 60.8 °F - 55.4 °F 82% 29.92 in 3.7 mi Calm Calm - N/A   Unknown
8:00 AM 63 °F - 56 °F 70% 29.92 in 4 mi Calm Calm - -   Mist
8:00 AM 62.6 °F - 55.4 °F 77% 29.92 in 3.7 mi Calm Calm - N/A   Unknown
9:00 AM 69.8 °F - 59.0 °F 68% 29.92 in 2.5 mi Calm Calm - N/A   Mist
10:00 AM 73.4 °F - 60.8 °F 65% 29.92 in 2.5 mi Calm Calm - N/A   Haze
11:00 AM 77 °F - 61 °F 49% 29.91 in 2 mi Calm Calm - -   Haze
11:00 AM 77.0 °F - 60.8 °F 57% 29.92 in 2.5 mi Calm Calm - N/A   Haze
12:00 PM 78.8 °F - 60.8 °F 54% 29.89 in 3.7 mi East 2.3 mph - N/A   Unknown
1:00 PM 82.4 °F 82.9 °F 60.8 °F 48% 29.86 in 3.7 mi Calm Calm - N/A   Unknown
2:00 PM 83 °F - 60 °F 36% 29.83 in 4 mi Calm Calm - -   Haze
2:00 PM 82.4 °F 82.9 °F 60.8 °F 48% 29.83 in 3.7 mi Calm Calm - N/A   Unknown
3:00 PM 82.4 °F 83.4 °F 62.6 °F 51% 29.83 in 5.0 mi WNW 3.5 mph - N/A   Unknown
4:00 PM 82.4 °F 83.4 °F 62.6 °F 51% 29.80 in 5.0 mi West 3.5 mph - N/A   Unknown
5:00 PM 77.0 °F - 62.6 °F 61% 29.83 in 5.0 mi Calm Calm - N/A   Unknown
6:00 PM 77.0 °F - 62.6 °F 61% 29.83 in 5.0 mi Calm Calm - N/A   Unknown
9:00 PM 69.8 °F - 59.0 °F 68% 29.83 in 3.7 mi Calm Calm - N/A   Unknown
10:00 PM 69.8 °F - 57.2 °F 64% 29.83 in 3.7 mi Calm Calm - N/A   Unknown
11:00 PM 69 °F - 56 °F 55% 29.84 in 4 mi NE 3.5 mph - -   Haze
11:00 PM 69.8 °F - 57.2 °F 64% 29.83 in 3.7 mi NE 3.5 mph - N/A   Unknown